SCP
0 0 0 0 0 0 0 0 0 0 0 0 0 0 0 0 0 0 -0 0 0 0 0 0 0 0 0 0 0 0 0 0 0 0 0 0 0 0 0 0 0 0 0 0
0 0 0 0 0 0 0 0 0 0 0 0 0 0 0 0 0 0 0 0 0 0 0 0 0 0 0 0 0 0 0 0 0 0 0 0 0 0 0 0 0 0 0 0
0 0 0 0 0 0 0 0 0 0 0 0 0 0 0 0 0 0 0 0 0 0 0 0 0 0 0 0 0 0 0 0 0 0 0 0 0 0 0 0 0 0 0 0
0 0 0 0 0 0 0 0 0 0 0 0 0 0 0 0 0 0 0 -0 0 0 0 0 0 0 0 0 0 0 0 0 0 0 0 0 0 0 0 0 0 0 0 0
0 0 0 0 0 0 0 0 0 0 0 0 0 0 0 0 0 0 0 -0 0 0 0 0 0 0 0 0 0 0 0 0 0 0 0 0 0 0 0 0 0 0 0 0
0 0 0 0 0 0 0 0 0 0 0 0 0 0 0 0 0 0 0 0 0 0 0 0 0 0 0 0 0 0 0 0 0 0 0 0 0 0 0 0 0 0 0 0
0 0 0 0 0 0 0 0 0 0 0 0 0 0 0 0 0 0 0 0 0 0 0 0 0 0 0 0 0 0 0 0 0 0 0 0 0 0 0 0 0 0 0 0
0 0 0 0 0 0 0 0 0 0 0 0 0 0 0 0 0 0 0 0 0 0 0 0 0 0 0 0 0 0 0 0 0 0 0 0 0 0 0 0 0 0 0 0
0 0 0 0 0 0 0 0 0 0 0 0 0 0 0 0 0 0 0 0 0 0 0 0 0 0 0 0 0 0 0 0 0 0 0 0 0 0 0 0 0 0 0 0
0 0 0 0 0 0 0 0 0 0 0 0 0 0 0 0 0 0 0 0 0 0 0 0 0 0 0 0 0 0 0 0 0 0 0 0 0 0 0 0 0 0 0 0
0 0 0 0 0 0 0 0 0 0 0 0 0 0 0 0 0 0 0 0 0 0 0 0 0 0 0 0 0 0 0 0 0 0 0 0 0 0 0 0 0 0 0 0
0 0 0 0 0 0 0 0 0 0 0 0 0 0 0 0 0 0 0 0 0 0 0 0 0 0 0 0 0 0 0 0 0 0 0 0 0 0 0 0 0 0 0 0
0 0 0 0 0 0 0 0 0 0 0 0 0 0 0 0 0 0 0 0 0 0 0 0 0 0 0 0 0 0 0 0 0 0 0 0 0 0 0 0 0 0 0 0
0 0 0 0 0 0 0 0 0 0 0 0 0 0 0 0 0 0 0 0 0 0 0 0 0 0 0 0 0 0 0 0 0 0 0 0 0 0 0 0 0 0 0 0
0 0 0 0 0 0 0 0 0 0 0 0 0 0 0 0 0 0 0 0 0 0 0 0 0 0 0 0 0 0 0 0 0 0 0 0 0 0 0 0 0 0 0 0
0 0 0 0 -0 -0 -0 0 0 0 0 0 0 0 0 0 0 0 0 0 0 0 0 0 0 0 0 0 0 0 0 0 0 0 0 0 0 0 0 0 0 0 0 0
0 0 0 0 -0 -0 -0 -0 0 0 0 0 0 0 0 0 0 0 0 0 0 0 0 0 0 0 0 0 0 0 0 0 0 0 0 0 0 0 0 0 0 0 0 0
0 0 0 0 -0 -0 -0 -0 0 0 0 0 0 0 0 0 0 0 0 0 0 0 0 0 0 0 0 0 0 0 0 0 0 0 0 0 0 0 0 0 0 0 0 0
0 0 0 0 0 0 0 0 0 0 0 0 0 0 0 0 0 0 0 0 0 0 0 0 0 0 0 0 0 0 0 0 0 0 0 0 0 0 0 0 0 0 0 0
0 0 0 0 0 0 0 0 0 0 0 0 0 0 0 0 0 0 0 0 0 0 0 0 0 0 0 0 0 0 0 0 0 0 0 0 0 0 0 0 0 0 0 0
0 0 0 0 0 0 0 0 0 0 0 0 0 0 0 0 0 0 0 0 -0 0 0 0 0 0 0 0 0 0 0 0 0 0 0 0 0 0 0 0 0 0 0 0
-0 -0 -0 -0 0 0 0 0 0 0 0 0 0 0 0 0 0 0 0 0 -0 -0 0 0 0 -0 0 0 0 0 0 0 0 0 0 0 0 0 0 0 0 0 0 0
-0 -0 -0 -0 -0 -0 0 0 0 0 0 0 0 0 0 0 0 0 0 0 -0 -0 0 0 -0 -0 -0 -0 0 0 0 0 0 0 0 0 0 0 0 0 0 0 0 0
-0 -0 -0 -0 -0 -0 0 0 0 0 0 0 0 0 0 0 0 0 0 0 -0 -0 -0 -0 -0 -0 -0 -0 -0 0 0 0 0 0 0 -0 0 0 0 0 0 0 0 0
0 0 0 0 0 0 0 0 0 0 0 0 0 0 0 0 0 0 0 0 0 -0 -0 -0 -0 -0 0 0 -0 0 0 0 -0 -0 -0 -0 -0 -0 -0 -0 -0 -0 -0 -0
0 0 0 0 0 0 0 0 0 0 0 0 0 0 0 0 0 0 0 0 0 -0 -0 -0 -0 -0 -0 -0 0 0 0 0 -0 -0 -0 -0 -0 -0 -0 -0 -0 -0 -0 -0
Wind_Speed
2 0 1 1 1 4 4 5 7 5 1 3 7 9 8 5 5 5 4 4 3 2 1 1 2 1 0 1 0 0 0 1 0 0 0 0 0 0 0 0 0 1 2 0
2 2 1 1 2 4 5 6 7 4 1 4 7 9 8 6 6 5 4 4 3 1 0 1 1 1 1 1 1 1 1 1 1 0 1 1 1 1 1 1 0 1 2 1
1 1 1 2 3 4 6 5 5 6 6 6 5 7 5 3 4 3 2 2 2 1 1 1 1 1 1 1 1 1 1 1 1 1 0 1 0 0 0 0 1 1 1 1
1 1 1 1 2 2 5 3 5 5 4 4 2 5 5 4 3 3 2 1 1 1 0 1 1 1 2 2 1 1 1 1 1 1 1 2 2 2 1 1 1 1 1 2
1 1 1 2 2 2 3 5 5 6 5 5 4 4 6 3 3 3 2 1 0 0 0 1 2 2 1 1 1 1 2 2 2 2 2 2 2 2 1 1 2 1 1 2
1 1 0 1 2 2 3 5 5 3 2 5 5 4 6 3 3 2 1 1 1 1 1 1 2 1 1 1 1 2 2 2 2 2 2 2 3 3 2 2 2 2 1 2
2 3 2 1 1 0 2 3 3 2 3 6 1 3 6 1 2 3 2 1 1 1 1 1 2 2 2 2 2 2 3 3 2 2 3 2 3 3 4 3 3 2 2 1
3 2 2 0 0 1 2 1 1 3 4 4 2 6 3 3 4 4 3 3 2 1 1 2 2 3 2 2 3 2 3 3 2 2 3 3 3 2 2 3 2 2 2 2
3 3 2 1 1 1 1 1 1 2 4 4 6 3 1 3 3 3 3 3 2 2 2 2 2 2 3 3 3 2 3 3 2 2 2 3 2 2 2 3 2 2 2 2
3 4 2 1 1 1 2 2 0 1 3 5 6 4 2 1 2 2 3 3 3 3 3 3 3 3 3 3 3 2 3 3 2 2 2 2 2 2 2 2 3 3 3 2
2 3 2 2 4 3 2 1 2 3 3 3 5 4 2 2 2 2 3 3 3 4 4 4 4 3 3 3 3 2 3 2 2 2 2 2 2 2 2 2 2 2 3 3
1 2 4 3 1 2 1 2 3 2 4 3 4 6 2 4 4 4 4 5 5 5 5 5 4 4 4 4 4 3 2 2 2 2 2 2 1 1 2 2 2 2 3 3
1 1 4 2 0 0 1 1 1 1 2 4 5 7 2 4 6 6 5 5 5 6 6 6 5 4 4 4 4 3 2 2 2 1 1 1 1 1 1 1 1 1 2 2
1 3 5 6 4 1 3 3 3 3 4 5 8 9 6 5 6 7 6 5 5 5 6 6 6 5 4 4 4 4 3 3 2 2 1 1 1 1 1 1 1 1 1 2
0 4 5 9 9 5 6 6 5 7 8 8 8 9 8 5 5 6 6 6 6 7 7 7 7 6 5 5 4 4 4 3 2 2 2 2 1 1 1 1 1 1 1 2
2 4 4 7 6 6 9 8 7 8 8 9 10 12 6 5 4 5 6 7 7 8 8 8 8 7 7 6 5 4 4 4 3 2 2 2 1 1 1 1 1 1 1 1
2 2 3 5 3 4 8 6 7 6 5 5 7 8 6 6 6 6 6 6 7 8 8 8 8 7 7 6 5 4 4 4 3 3 3 2 2 1 1 1 1 1 1 1
3 2 3 4 3 6 5 0 2 4 5 4 4 5 4 5 5 4 3 5 7 8 8 8 7 7 6 6 5 4 4 4 3 4 4 3 2 2 2 1 1 1 1 1
2 3 3 3 4 7 2 1 0 2 4 2 4 5 5 6 5 2 4 5 5 7 7 6 6 6 6 6 5 4 4 4 4 4 4 4 3 2 2 1 2 2 1 1
1 1 2 3 4 5 3 1 1 0 3 3 2 3 5 5 4 4 5 6 6 6 6 6 6 6 6 6 5 4 4 4 4 5 5 4 4 3 2 2 2 2 2 2
1 2 4 5 6 6 2 2 1 0 4 3 3 3 3 3 3 4 5 6 5 6 6 6 5 5 5 6 5 5 4 5 5 5 4 4 3 3 3 2 2 1 2 1
4 3 4 3 5 7 1 1 1 3 2 3 3 2 3 4 4 4 4 5 6 6 7 6 5 5 5 5 5 5 5 6 5 5 4 4 3 3 3 2 2 2 1 1
5 5 3 5 6 2 1 2 2 1 2 3 2 3 3 4 5 5 4 5 5 6 6 6 5 6 6 5 5 5 6 6 5 5 5 4 4 3 3 3 2 2 1 1
3 1 2 4 5 3 2 2 2 2 2 3 2 3 3 4 5 5 5 5 5 6 6 6 5 6 6 6 6 5 6 6 5 5 5 5 4 3 3 3 2 2 1 1
2 2 3 5 4 3 2 2 3 4 3 3 4 3 3 3 4 4 4 5 5 5 5 5 5 5 6 6 6 6 6 5 5 5 5 5 4 4 3 3 2 3 2 1
1 2 3 4 3 3 5 4 3 3 4 4 3 4 3 3 4 4 4 4 4 5 5 5 5 5 6 6 6 6 6 5 5 5 5 4 4 3 3 3 3 4 4 5
Wind_Direction
170 221 266 291 286 295 302 287 284 285 289 279 260 262 262 229 213 215 211 206 220 228 217 163 146 146 171 179 189 190 328 335 317 318 275 195 156 117 107 115 304 329 332 325
200 234 304 341 302 283 279 283 284 292 341 290 272 268 254 226 204 201 213 218 210 216 37 164 170 162 186 208 234 243 251 266 266 284 273 216 191 188 193 218 244 274 310 272
226 45 10 305 296 292 272 274 298 314 316 261 268 276 219 198 178 179 195 199 182 201 209 229 214 200 205 227 233 252 258 267 271 275 278 251 206 198 198 213 250 255 297 241
250 114 287 280 287 295 284 337 320 307 306 284 243 283 243 183 183 188 196 186 175 203 225 278 273 256 245 234 231 261 267 268 253 239 229 220 214 213 220 208 224 236 291 229
253 125 262 271 310 303 296 321 294 282 271 281 247 250 272 162 201 204 191 157 96 210 231 293 298 271 265 233 215 245 258 251 244 233 236 230 221 213 206 191 207 224 269 228
239 79 348 348 345 308 314 303 271 251 252 258 225 212 272 198 199 174 149 89 30 12 5 342 330 317 299 290 250 235 241 244 237 228 226 227 217 210 205 208 203 212 239 207
229 174 124 32 296 278 323 334 334 308 241 249 204 219 248 176 93 124 137 92 54 19 356 333 319 309 302 285 263 249 243 242 235 224 217 222 232 214 212 212 199 201 227 223
291 258 155 188 313 264 246 303 250 266 277 300 280 239 238 100 68 65 72 83 60 351 326 305 300 309 307 299 286 263 249 251 243 231 228 223 237 227 217 213 198 201 213 221
302 278 65 44 4 327 269 239 326 293 286 277 257 244 120 70 57 48 43 34 16 343 328 310 300 304 306 296 289 272 265 262 253 243 236 228 226 230 213 205 206 206 210 213
313 284 226 141 237 257 322 332 82 236 277 281 276 258 282 353 359 22 15 357 346 342 332 328 325 316 302 293 287 274 271 269 267 271 265 260 232 232 226 210 209 202 201 203
298 267 258 204 203 203 166 199 229 258 258 258 285 280 22 75 55 25 358 352 346 336 328 325 323 317 313 314 311 273 259 267 268 262 265 277 264 242 222 218 219 203 197 197
329 289 269 253 78 54 149 202 171 199 263 246 264 273 21 54 49 28 3 352 353 345 340 337 331 328 326 327 324 314 284 277 275 271 264 265 270 263 242 224 225 216 205 200
353 268 293 288 357 15 240 233 205 210 270 245 245 264 358 31 19 10 355 346 348 348 346 342 338 330 325 324 322 324 329 320 309 299 280 274 271 258 264 253 233 220 214 207
19 243 232 250 280 244 254 236 201 194 226 254 243 267 306 346 346 343 343 342 343 344 344 339 334 328 328 328 328 330 332 331 329 334 317 291 277 260 263 264 255 248 226 207
188 256 258 272 281 269 258 251 217 219 230 241 264 278 293 319 327 332 339 341 347 345 340 336 333 332 331 332 332 333 331 329 330 331 319 305 304 301 287 279 268 252 230 224
217 260 288 280 260 260 270 259 231 234 242 251 271 280 300 332 341 341 340 345 344 338 334 331 332 332 333 330 327 329 327 329 338 330 322 326 335 340 315 297 285 264 247 232
215 234 270 275 286 293 269 245 216 227 224 222 247 268 321 334 338 333 337 350 340 332 331 331 330 329 329 328 327 331 330 341 348 338 335 342 342 331 306 299 313 300 287 266
206 220 244 275 311 253 249 326 190 228 254 236 254 292 320 319 312 308 347 351 341 338 333 329 328 329 332 334 336 337 338 347 351 344 344 346 339 328 320 315 313 308 304 296
214 206 245 260 265 269 265 318 132 228 279 291 268 293 315 325 319 325 23 10 346 333 327 325 327 326 330 334 333 338 344 346 348 343 340 337 333 326 321 320 314 309 317 303
16 166 227 249 256 260 274 318 341 118 276 351 332 306 320 343 332 313 355 353 342 338 336 335 337 340 339 336 337 347 345 345 340 333 329 333 334 328 310 300 306 315 309 296
195 218 228 243 250 262 280 295 51 197 279 336 352 338 331 307 277 303 330 338 341 339 336 338 342 343 336 337 345 349 348 338 329 329 332 337 337 330 320 311 316 319 312 316
191 205 220 225 240 260 8 79 173 247 306 336 341 342 323 304 304 320 331 335 340 340 340 342 343 342 341 345 349 347 339 330 332 336 337 338 340 336 335 347 342 332 329 325
205 202 208 213 231 260 163 217 249 307 311 313 319 322 320 316 314 323 332 334 335 335 337 338 339 339 343 347 349 340 331 333 336 342 341 336 340 344 347 354 344 337 338 321
239 237 245 266 269 284 286 320 340 336 314 319 323 323 324 312 317 325 329 331 332 333 335 338 342 342 341 344 345 339 336 338 340 343 339 339 343 346 351 347 342 343 338 324
264 195 249 262 291 316 306 316 329 341 349 346 340 332 322 318 315 319 322 325 328 332 335 337 337 334 333 337 340 338 341 342 342 341 339 341 343 342 344 347 353 348 356 341
236 214 228 254 285 281 293 318 337 336 336 335 335 334 333 320 310 316 316 320 325 326 329 331 331 330 331 336 338 340 342 344 345 343 341 339 338 338 342 342 343 349 347 349